NE2X Weather Reports


time (UTC)temp
C
wind
direction
speed
KPH
gust
KPH
rain 1hr
cm
rain 24hr
cm
rain mn
cm
humidity
%
barometer
mb
20260510225424 18 283 1.6 6.4 0.00 0.00 0.00 62 1013.7
20260510224503 18 0 0.0 4.8 0.00 0.00 0.00 62 1013.8
20260510223603 19 0 0.0 4.8 0.00 0.00 0.00 63 1013.7
20260510222725 18 318 1.6 4.8 0.00 0.00 0.00 62 1013.5
20260510221804 18 292 1.6 6.4 0.00 0.00 0.00 63 1013.6
20260510220905 18 308 1.6 6.4 0.00 0.00 0.00 63 1013.5
20260510220005 19 332 1.6 4.8 0.00 0.03 0.00 63 1013.5
20260510215405 19 326 1.6 9.7 0.00 0.03 0.00 63 1013.5
20260510214504 19 297 3.2 17.7 0.00 0.10 0.00 64 1013.6
20260510213604 19 297 4.8 12.9 0.00 0.15 0.00 64 1013.6
20260510212704 19 302 4.8 14.5 0.00 0.20 0.00 62 1013.5
20260510211804 19 308 3.2 9.7 0.00 0.25 0.00 63 1013.4
20260510210904 20 302 4.8 14.5 0.00 0.33 0.00 61 1013.2
20260510210004 20 329 3.2 12.9 0.00 0.36 0.00 62 1013.1
20260510205404 20 318 3.2 11.3 0.00 0.36 0.00 59 1013.1
20260510204504 20 305 3.2 12.9 0.00 0.38 0.00 59 1012.9
20260510203604 21 303 3.2 14.5 0.00 0.38 0.00 57 1012.9
20260510202704 21 308 4.8 14.5 0.00 0.41 0.00 55 1012.9
20260510201825 21 325 3.2 9.7 0.00 0.41 0.00 54 1012.6
20260510200925 22 310 1.6 6.4 0.00 0.41 0.00 54 1012.7
20260510200004 22 306 1.6 9.7 0.00 0.41 0.00 56 1012.7
20260510195404 22 288 3.2 9.7 0.00 0.41 0.00 52 1012.8
20260510194525 22 320 3.2 11.3 0.00 0.41 0.00 52 1012.7
20260510193604 22 328 4.8 11.3 0.00 0.43 0.00 52 1012.8
20260510192704 23 308 4.8 12.9 0.00 0.43 0.00 55 1012.7
20260510191825 23 290 4.8 16.1 0.00 0.43 0.00 50 1012.7
20260510190904 23 288 4.8 12.9 0.00 0.43 0.00 52 1012.8
20260510190004 23 316 4.8 12.9 0.00 0.43 0.00 53 1012.8
20260510185404 23 266 4.8 12.9 0.00 0.43 0.00 55 1012.8
20260510184504 23 324 4.8 12.9 0.00 0.43 0.00 53 1012.9
20260510183625 23 233 3.2 11.3 0.00 0.43 0.00 59 1013.0
20260510182704 22 174 3.2 11.3 0.00 0.43 0.00 62 1013.0
20260510181804 22 292 3.2 12.9 0.00 0.46 0.00 60 1013.0
20260510180925 23 176 3.2 9.7 0.00 0.46 0.00 62 1013.0
20260510180004 23 191 3.2 11.3 0.00 0.46 0.00 61 1013.0
20260510175425 23 274 3.2 11.3 0.00 0.46 0.00 60 1012.9
20260510174504 23 295 1.6 6.4 0.00 0.51 0.00 59 1012.9
20260510173625 23 320 3.2 9.7 0.00 0.74 0.00 63 1012.8
20260510172704 22 310 3.2 11.3 0.00 0.84 0.00 64 1012.9
20260510171804 22 182 4.8 12.9 0.00 0.84 0.00 64 1012.8
20260510170903 22 184 3.2 19.3 0.00 0.84 0.00 65 1012.9
20260510170004 21 162 1.6 8.0 0.00 0.84 0.00 67 1013.0
20260510165405 21 218 3.2 8.0 0.00 0.84 0.00 66 1013.1
20260510164504 20 182 4.8 11.3 0.00 0.84 0.00 72 1013.2
20260510163603 20 227 3.2 9.7 0.00 0.84 0.00 71 1013.3
20260510162724 19 232 4.8 12.9 0.00 0.84 0.00 72 1013.4
20260510161803 19 153 4.8 16.1 0.00 0.84 0.00 73 1013.5
20260510160903 18 172 3.2 11.3 0.00 0.84 0.00 73 1013.5
20260510160024 18 207 6.4 14.5 0.00 0.84 0.00 74 1013.5
20260510155405 18 176 4.8 11.3 0.00 0.84 0.00 74 1013.4
20260510154503 18 154 3.2 11.3 0.00 0.84 0.00 75 1013.5
20260510153604 18 168 3.2 12.9 0.00 0.84 0.00 77 1013.7
20260510152703 17 163 4.8 14.5 0.00 0.84 0.00 79 1013.6
20260510151803 17 160 4.8 12.9 0.00 0.84 0.00 80 1013.6
20260510150903 16 172 3.2 9.7 0.00 0.84 0.00 83 1013.7
20260510150003 16 126 1.6 6.4 0.00 0.84 0.00 83 1013.8
20260510145424 16 190 1.6 6.4 0.00 0.84 0.00 85 1013.8
20260510144504 16 196 1.6 6.4 0.00 0.84 0.00 85 1013.7
20260510143605 15 159 3.2 9.7 0.00 0.84 0.00 89 1013.6
20260510142703 14 170 3.2 9.7 0.00 0.84 0.00 93 1013.6
20260510141803 13 175 3.2 8.0 0.00 0.84 0.00 94 1013.7
20260510140903 13 168 1.6 6.4 0.00 0.84 0.00 95 1013.6
20260510140003 13 191 1.6 8.0 0.00 0.84 0.00 95 1013.6
20260510135403 13 203 1.6 4.8 0.00 0.84 0.00 96 1013.6
20260510134503 13 184 3.2 9.7 0.00 0.84 0.00 96 1013.5
20260510133624 12 198 1.6 4.8 0.00 0.84 0.00 96 1013.5
20260510132703 12 194 1.6 8.0 0.00 0.84 0.00 96 1013.5
20260510131804 12 205 3.2 8.0 0.00 0.84 0.00 96 1013.5
20260510130904 12 200 1.6 3.2 0.00 0.84 0.00 96 1013.3
20260510130025 12 212 1.6 6.4 0.00 0.84 0.00 96 1013.2
20260510125404 12 194 1.6 6.4 0.00 0.84 0.00 96 1013.1
20260510124525 12 166 1.6 4.8 0.00 0.84 0.00 96 1013.3
20260510123604 12 0 0.0 3.2 0.00 0.84 0.00 97 1013.1
20260510122704 11 277 1.6 3.2 0.00 0.84 0.00 96 1013.0
20260510121825 11 186 1.6 6.4 0.00 0.84 0.00 96 1012.9
20260510120925 11 197 1.6 4.8 0.00 0.84 0.00 96 1012.8
20260510120004 11 175 1.6 6.4 0.00 0.84 0.00 96 1012.8
20260510115404 11 0 0.0 1.6 0.00 0.84 0.00 96 1012.7
20260510114525 11 0 0.0 3.2 0.00 0.84 0.00 96 1012.7
20260510113604 11 0 0.0 3.2 0.00 0.84 0.00 96 1012.6
20260510112704 11 203 1.6 4.8 0.00 0.84 0.00 96 1012.6
20260510111804 11 0 0.0 3.2 0.00 0.84 0.00 96 1012.6
20260510110925 11 209 1.6 3.2 0.00 0.84 0.00 96 1012.3
20260510110004 10 206 1.6 3.2 0.00 0.84 0.00 96 1012.2
20260510105404 10 0 0.0 3.2 0.00 0.84 0.00 96 1012.0
20260510104504 10 0 0.0 1.6 0.00 0.84 0.00 96 1012.2
20260510103625 10 0 0.0 1.6 0.00 0.84 0.00 96 1012.2
20260510102703 10 0 0.0 1.6 0.00 0.84 0.00 96 1012.2
20260510101825 10 0 0.0 3.2 0.00 0.84 0.00 96 1012.2
20260510100904 10 0 0.0 1.6 0.00 0.84 0.00 96 1012.3
20260510100004 10 0 0.0 1.6 0.00 0.84 0.00 96 1012.3
20260510095404 10 0 0.0 1.6 0.00 0.84 0.00 96 1012.2
20260510094504 10 155 1.6 3.2 0.00 0.84 0.00 96 1012.3
20260510093604 10 0 0.0 3.2 0.00 0.84 0.00 96 1012.3
20260510092704 10 0 0.0 1.6 0.00 0.84 0.00 96 1012.3
20260510091804 10 0 0.0 3.2 0.00 0.84 0.00 96 1012.4
20260510090903 11 0 0.0 1.6 0.00 0.84 0.00 96 1012.5
20260510090004 11 0 0.0 3.2 0.00 0.84 0.00 96 1012.6
20260510085425 11 333 1.6 3.2 0.00 0.84 0.00 96 1012.6
20260510084524 11 0 0.0 3.2 0.00 0.84 0.00 96 1012.6
20260510083603 11 347 1.6 4.8 0.00 0.84 0.00 96 1012.5
20260510082704 11 341 3.2 4.8 0.00 0.84 0.00 96 1012.5
20260510081804 11 338 3.2 4.8 0.00 0.84 0.00 96 1012.2
20260510080904 11 333 1.6 4.8 0.00 0.84 0.00 96 1012.2
20260510080004 11 0 0.0 3.2 0.00 0.84 0.00 96 1011.7
20260510075403 11 0 0.0 3.2 0.00 0.84 0.00 96 1011.6
20260510074504 11 0 0.0 3.2 0.00 0.84 0.00 96 1011.6
20260510073624 11 0 0.0 0.0 0.00 0.84 0.00 96 1011.6
20260510072703 11 0 0.0 3.2 0.00 0.84 0.00 96 1011.5
20260510071803 11 286 1.6 3.2 0.00 0.84 0.00 96 1011.5
20260510070903 11 0 0.0 1.6 0.00 0.84 0.00 96 1011.6
20260510070004 11 0 0.0 1.6 0.00 0.84 0.00 96 1011.7
20260510065403 11 0 0.0 1.6 0.00 0.84 0.00 96 1011.7
20260510064503 10 0 0.0 1.6 0.00 0.84 0.00 96 1011.8
20260510063603 10 0 0.0 1.6 0.00 0.84 0.00 96 1011.7
20260510062703 10 0 0.0 1.6 0.00 0.84 0.00 96 1011.7
20260510061824 10 0 0.0 1.6 0.00 0.84 0.00 96 1011.4
20260510060924 9 0 0.0 1.6 0.00 0.84 0.00 96 1011.3
20260510060024 9 0 0.0 0.0 0.00 0.84 0.00 96 1011.3
20260510055424 9 0 0.0 0.0 0.00 0.84 0.00 95 1011.4
20260510054524 9 0 0.0 1.6 0.00 0.84 0.00 96 1011.3
20260510053624 8 0 0.0 1.6 0.00 0.84 0.00 95 1011.4
20260510052703 8 0 0.0 1.6 0.00 0.84 0.00 95 1011.5
20260510051824 8 0 0.0 1.6 0.00 0.84 0.00 95 1011.5
20260510050924 8 0 0.0 1.6 0.00 0.84 0.00 95 1011.5
20260510050004 8 0 0.0 1.6 0.00 0.84 0.00 95 1011.6
20260510045403 8 0 0.0 1.6 0.00 0.84 0.00 95 1011.6
20260510044503 8 0 0.0 1.6 0.00 0.84 0.00 95 1011.6
20260510043604 8 0 0.0 1.6 0.00 0.84 0.00 95 1011.7
20260510042703 8 0 0.0 0.0 0.00 0.84 0.00 95 1011.7
20260510041804 9 0 0.0 0.0 0.00 0.84 0.00 95 1011.7
20260510040904 9 0 0.0 0.0 0.00 0.84 0.00 95 1011.5
20260510040004 9 234 1.6 1.6 0.00 0.84 0.00 95 1011.6
20260510035404 9 0 0.0 1.6 0.00 0.84 0.84 95 1011.5
20260510034525 9 0 0.0 0.0 0.00 0.84 0.84 95 1011.4
20260510033607 9 0 0.0 1.6 0.00 0.84 0.84 94 1011.3
20260510032704 9 0 0.0 1.6 0.00 0.84 0.84 95 1011.3
20260510031804 9 0 0.0 0.0 0.00 0.84 0.84 95 1011.2
20260510030904 9 0 0.0 1.6 0.00 0.84 0.84 95 1011.2
20260510030025 9 0 0.0 1.6 0.00 0.84 0.84 94 1011.3
20260510025425 10 0 0.0 1.6 0.00 0.84 0.84 94 1011.2
20260510024504 10 0 0.0 1.6 0.00 0.84 0.84 94 1011.2
20260510023604 10 0 0.0 1.6 0.00 0.84 0.84 94 1011.2
20260510022704 10 0 0.0 1.6 0.00 0.84 0.84 94 1011.4
20260510021804 10 0 0.0 1.6 0.00 0.84 0.84 94 1011.3
20260510020904 10 0 0.0 1.6 0.00 0.84 0.84 94 1011.3
20260510020004 10 0 0.0 1.6 0.00 0.84 0.84 94 1011.2
20260510015404 10 0 0.0 1.6 0.00 0.84 0.84 94 1011.2
20260510014504 10 0 0.0 1.6 0.00 0.84 0.84 94 1011.2
20260510013604 10 0 0.0 0.0 0.00 0.84 0.84 93 1011.3
20260510012704 10 0 0.0 0.0 0.00 0.84 0.84 93 1011.1
20260510011804 10 0 0.0 1.6 0.00 0.84 0.84 93 1011.1
20260510010925 11 0 0.0 1.6 0.00 0.84 0.84 93 1010.9
20260510010004 11 0 0.0 1.6 0.00 0.84 0.84 93 1010.8
20260510005404 11 0 0.0 1.6 0.00 0.84 0.84 93 1010.7
20260510004504 11 0 0.0 1.6 0.00 0.84 0.84 93 1010.8
20260510003604 11 0 0.0 0.0 0.00 0.84 0.84 93 1010.7
20260510002725 11 0 0.0 0.0 0.00 0.84 0.84 93 1010.7
20260510001804 11 0 0.0 0.0 0.00 0.84 0.84 93 1010.7
20260510000904 11 0 0.0 1.6 0.00 0.84 0.84 92 1010.6
20260510000004 12 0 0.0 1.6 0.00 0.84 0.84 92 1010.6
20260509235404 12 0 0.0 1.6 0.00 0.84 0.84 92 1010.5
20260509234524 12 0 0.0 4.8 0.00 0.84 0.84 92 1010.4
20260509233604 12 200 1.6 4.8 0.00 0.84 0.84 92 1010.2
20260509232703 12 183 1.6 3.2 0.00 0.84 0.84 93 1010.4
20260509231803 12 186 1.6 4.8 0.00 0.84 0.84 93 1010.5
20260509230904 12 0 0.0 3.2 0.00 0.84 0.84 93 1010.5
20260509230004 12 0 0.0 4.8 0.03 0.84 0.84 93 1010.6